EW3770 Weather Reports


Display with metric or nautical units.
time (UTC)temp
F
wind
direction
speed
MPH
gust
MPH
rain 1hr
in
rain 24hr
in
rain mn
in
humidity
%
barometer
mb
20260905001803 86 171 3.0 17.0 0.00 0.00 0.00 21 1027.4
20260905000903 87 180 4.0 11.0 0.00 0.00 0.00 20 1027.4
20260905000003 88 175 3.0 10.0 0.00 0.00 0.00 19 1027.4
20260904235403 88 174 3.0 12.0 0.00 0.00 0.00 19 1027.4
20260904234503 88 177 2.0 7.0 0.00 0.00 0.00 20 1027.4
20260904233603 88 180 2.0 11.0 0.00 0.00 0.00 19 1027.4
20260904232703 88 181 3.0 11.0 0.00 0.00 0.00 18 1027.4
20260904231803 88 184 4.0 16.0 0.00 0.00 0.00 18 1027.4
20260904230903 88 174 3.0 11.0 0.00 0.00 0.00 19 1027.4
20260904230003 88 185 3.0 11.0 0.00 0.00 0.00 17 1027.4
20260904225403 88 181 3.0 10.0 0.00 0.00 0.00 19 1027.4
20260904224503 88 177 3.0 8.0 0.00 0.00 0.00 17 1027.4
20260904223603 88 181 4.0 15.0 0.00 0.00 0.00 18 1027.4
20260904222724 88 176 4.0 16.0 0.00 0.00 0.00 18 1027.4
20260904221803 88 173 5.0 15.0 0.00 0.00 0.00 19 1027.4
20260904220903 88 180 5.0 17.0 0.00 0.00 0.00 19 1027.4
20260904220003 88 184 5.0 16.0 0.00 0.00 0.00 18 1027.4
20260904215403 88 186 5.0 15.0 0.00 0.00 0.00 19 1027.4
20260904214503 88 181 4.0 10.0 0.00 0.00 0.00 17 1027.4
20260904213624 87 170 4.0 12.0 0.00 0.00 0.00 18 1027.4
20260904212703 87 184 4.0 13.0 0.00 0.00 0.00 18 1027.4
20260904211803 87 169 4.0 19.0 0.00 0.00 0.00 18 1027.4
20260904210903 87 176 4.0 15.0 0.00 0.00 0.00 17 1027.4
20260904210003 87 174 4.0 15.0 0.00 0.00 0.00 18 1027.4
20260904205403 87 176 4.0 10.0 0.00 0.00 0.00 18 1027.4
20260904204503 87 186 3.0 11.0 0.00 0.00 0.00 18 1027.4
20260904203603 87 173 2.0 8.0 0.00 0.00 0.00 20 1027.4
20260904202703 86 183 4.0 11.0 0.00 0.00 0.00 18 1027.4
20260904201824 86 196 3.0 12.0 0.00 0.00 0.00 22 1027.4
20260904200924 85 165 5.0 17.0 0.00 0.00 0.00 20 1027.4
20260904200003 84 144 3.0 17.0 0.00 0.00 0.00 22 1027.4
20260904195403 84 137 5.0 15.0 0.00 0.00 0.00 22 1027.4
20260904194503 84 142 4.0 15.0 0.00 0.00 0.00 21 1027.4
20260904193603 83 131 7.0 21.0 0.00 0.00 0.00 22 1027.4
20260904192703 83 134 6.0 19.0 0.00 0.00 0.00 22 1027.4
20260904191803 83 139 6.0 19.0 0.00 0.00 0.00 22 1027.4
20260904190903 83 140 5.0 23.0 0.00 0.00 0.00 22 1027.4
20260904190003 83 141 4.0 20.0 0.00 0.00 0.00 23 1027.4
20260904185424 82 145 3.0 14.0 0.00 0.00 0.00 24 1027.4
20260904184503 82 132 6.0 24.0 0.00 0.00 0.00 24 1027.4
20260904183603 82 144 5.0 16.0 0.00 0.00 0.00 23 1027.4
20260904182703 82 141 3.0 15.0 0.00 0.00 0.00 25 1027.4
20260904181803 81 140 5.0 16.0 0.00 0.00 0.00 26 1027.4
20260904180903 81 143 5.0 19.0 0.00 0.00 0.00 26 1027.4
20260904180003 81 143 4.0 16.0 0.00 0.00 0.00 26 1027.4
20260904175403 81 144 4.0 16.0 0.00 0.00 0.00 27 1027.4
20260904174524 81 152 4.0 15.0 0.00 0.00 0.00 26 1027.4
20260904173603 81 149 3.0 13.0 0.00 0.00 0.00 26 1027.4
20260904172703 80 147 3.0 14.0 0.00 0.00 0.00 29 1027.4
20260904171803 80 150 4.0 20.0 0.00 0.00 0.00 26 1027.4
20260904170903 80 135 4.0 20.0 0.00 0.00 0.00 28 1027.4
20260904170003 80 145 3.0 10.0 0.00 0.00 0.00 27 1027.4
20260904165403 79 142 2.0 10.0 0.00 0.00 0.00 29 1027.4
20260904164503 78 143 3.0 11.0 0.00 0.00 0.00 28 1027.4
20260904163603 78 151 3.0 10.0 0.00 0.00 0.00 26 1027.4
20260904162703 78 150 3.0 9.0 0.00 0.00 0.00 28 1027.4
20260904161804 77 154 2.0 13.0 0.00 0.00 0.00 29 1027.4
20260904160903 77 152 2.0 7.0 0.00 0.00 0.00 32 1027.4
20260904160003 76 147 2.0 9.0 0.00 0.00 0.00 30 1027.4
20260904155403 76 151 2.0 6.0 0.00 0.00 0.00 30 1027.4
20260904154503 75 144 2.0 8.0 0.00 0.00 0.00 32 1027.4
20260904153603 75 154 2.0 8.0 0.00 0.00 0.00 33 1027.4
20260904152703 74 149 2.0 8.0 0.00 0.00 0.00 33 1027.4
20260904151824 74 160 2.0 8.0 0.00 0.00 0.00 37 1027.4
20260904150903 73 180 1.0 6.0 0.00 0.00 0.00 36 1027.4
20260904150003 72 197 1.0 5.0 0.00 0.00 0.00 36 1027.4
20260904145403 72 202 2.0 6.0 0.00 0.00 0.00 35 1027.4
20260904144503 72 194 2.0 7.0 0.00 0.00 0.00 35 1027.4
20260904143603 71 197 2.0 5.0 0.00 0.00 0.00 34 1027.4
20260904142703 70 193 2.0 7.0 0.00 0.00 0.00 32 1027.4
20260904141803 70 192 2.0 5.0 0.00 0.00 0.00 33 1027.4
20260904140903 69 237 2.0 6.0 0.00 0.00 0.00 33 1027.4
20260904140003 68 263 1.0 7.0 0.00 0.00 0.00 32 1027.4
20260904135403 67 249 1.0 7.0 0.00 0.00 0.00 32 1027.4
20260904134503 65 216 1.0 4.0 0.00 0.00 0.00 32 1027.4
20260904133624 65 209 1.0 7.0 0.00 0.00 0.00 32 1027.4
20260904132703 64 182 1.0 6.0 0.00 0.00 0.00 31 1027.4
20260904131803 64 165 1.0 4.0 0.00 0.00 0.00 30 1027.4
20260904130903 64 177 0.0 4.0 0.00 0.00 0.00 29 1027.4
20260904130003 64 206 1.0 5.0 0.00 0.00 0.00 28 1027.4
20260904125403 65 195 0.0 3.0 0.00 0.00 0.00 28 1027.4
20260904124503 65 195 0.0 4.0 0.00 0.00 0.00 28 1027.4
20260904123624 65 192 0.0 6.0 0.00 0.00 0.00 28 1027.4
20260904122724 65 139 0.0 3.0 0.00 0.00 0.00 28 1027.4
20260904121824 65 151 0.0 4.0 0.00 0.00 0.00 29 1027.4
20260904120903 65 161 0.0 2.0 0.00 0.00 0.00 29 1027.4
20260904120003 65 161 0.0 5.0 0.00 0.00 0.00 28 1027.4
20260904115403 65 166 0.0 5.0 0.00 0.00 0.00 28 1027.4
20260904114503 65 185 1.0 3.0 0.00 0.00 0.00 27 1027.4
20260904113603 65 185 0.0 3.0 0.00 0.00 0.00 26 1027.4
20260904112703 65 186 0.0 2.0 0.00 0.00 0.00 25 1027.4
20260904111803 65 186 0.0 3.0 0.00 0.00 0.00 24 1027.4
20260904110903 65 186 0.0 2.0 0.00 0.00 0.00 23 1027.4
20260904110003 64 186 0.0 2.0 0.00 0.00 0.00 24 1027.4
20260904105424 64 186 0.0 3.0 0.00 0.00 0.00 25 1027.4
20260904104503 64 186 0.0 1.0 0.00 0.00 0.00 27 1027.4
20260904103603 65 186 0.0 1.0 0.00 0.00 0.00 29 1027.4
20260904102724 65 186 0.0 2.0 0.00 0.00 0.00 29 1027.4
20260904101803 65 185 0.0 2.0 0.00 0.00 0.00 28 1027.4
20260904100903 66 184 0.0 1.0 0.00 0.00 0.00 28 1027.4
20260904100003 66 184 0.0 2.0 0.00 0.00 0.00 27 1027.4
20260904095403 66 184 0.0 1.0 0.00 0.00 0.00 27 1027.4
20260904094524 66 206 0.0 4.0 0.00 0.00 0.00 27 1027.4
20260904093624 67 196 0.0 5.0 0.00 0.00 0.00 27 1027.4
20260904092724 67 136 0.0 2.0 0.00 0.00 0.00 27 1027.4
20260904091803 67 173 1.0 4.0 0.00 0.00 0.00 26 1027.4
20260904090903 67 180 0.0 3.0 0.00 0.00 0.00 25 1027.4
20260904090003 67 200 0.0 2.0 0.00 0.00 0.00 25 1027.4
20260904085403 67 176 0.0 3.0 0.00 0.00 0.00 25 1027.4
20260904084503 67 170 1.0 7.0 0.00 0.00 0.00 25 1027.4
20260904083603 67 189 1.0 6.0 0.00 0.00 0.00 25 1027.4
20260904082703 66 202 1.0 3.0 0.00 0.00 0.00 27 1027.4
20260904081803 66 241 1.0 3.0 0.00 0.00 0.00 27 1027.4
20260904080903 66 242 0.0 2.0 0.00 0.00 0.00 28 1027.4
20260904080003 66 242 0.0 2.0 0.00 0.00 0.00 29 1027.4
20260904075403 67 242 0.0 2.0 0.00 0.00 0.00 28 1027.4
20260904074503 67 243 1.0 3.0 0.00 0.00 0.00 29 1027.4
20260904073603 68 177 0.0 3.0 0.00 0.00 0.00 29 1027.4
20260904072703 68 144 0.0 2.0 0.00 0.00 0.00 29 1027.4
20260904071803 69 146 0.0 4.0 0.00 0.00 0.00 28 1027.4
20260904070903 70 151 1.0 5.0 0.00 0.00 0.00 27 1027.4
20260904070003 70 140 1.0 5.0 0.00 0.00 0.00 28 1027.4
20260904065403 70 136 1.0 5.0 0.00 0.00 0.00 28 1027.4
20260904064504 70 137 1.0 7.0 0.00 0.00 0.00 28 1027.4
20260904063603 71 160 1.0 7.0 0.00 0.00 0.00 28 1027.4
20260904062703 71 162 1.0 9.0 0.00 0.00 0.00 27 1027.4
20260904061803 71 160 1.0 9.0 0.00 0.00 0.00 28 1027.4
20260904060903 72 149 1.0 6.0 0.00 0.00 0.00 27 1027.4
20260904060004 72 142 1.0 5.0 0.00 0.00 0.00 26 1027.4
20260904055403 72 140 2.0 7.0 0.00 0.00 0.00 25 1027.4
20260904054503 72 140 2.0 7.0 0.00 0.00 0.00 25 1027.4
20260904053624 72 141 1.0 4.0 0.00 0.00 0.00 26 1027.4
20260904052703 72 147 1.0 6.0 0.00 0.00 0.00 26 1027.4
20260904051803 73 162 1.0 5.0 0.00 0.00 0.00 25 1027.4
20260904050903 73 153 2.0 8.0 0.00 0.00 0.00 25 1027.4
20260904050004 73 161 1.0 10.0 0.00 0.00 0.00 26 1027.4
20260904045403 73 157 1.0 10.0 0.00 0.00 0.00 25 1027.4
20260904044503 74 149 1.0 6.0 0.00 0.00 0.00 25 1027.4
20260904043624 74 148 2.0 10.0 0.00 0.00 0.00 24 1027.4
20260904042703 74 138 1.0 5.0 0.00 0.00 0.00 24 1027.4
20260904041803 75 134 2.0 7.0 0.00 0.00 0.00 22 1027.4
20260904040903 75 151 1.0 7.0 0.00 0.00 0.00 20 1027.4
20260904040003 76 166 1.0 4.0 0.00 0.00 0.00 19 1027.4
20260904035403 76 139 1.0 3.0 0.00 0.00 0.00 18 1027.4
20260904034503 76 168 1.0 5.0 0.00 0.00 0.00 18 1027.4
20260904033603 76 165 1.0 5.0 0.00 0.00 0.00 18 1027.4
20260904032703 77 164 1.0 7.0 0.00 0.00 0.00 18 1027.4
20260904031803 77 201 2.0 6.0 0.00 0.00 0.00 17 1027.4
20260904030903 77 191 2.0 8.0 0.00 0.00 0.00 17 1027.4
20260904030003 77 194 2.0 6.0 0.00 0.00 0.00 18 1027.4
20260904025403 77 203 1.0 6.0 0.00 0.00 0.00 18 1027.4
20260904024503 77 194 1.0 5.0 0.00 0.00 0.00 18 1027.4
20260904023624 78 190 1.0 5.0 0.00 0.00 0.00 17 1027.4
20260904022703 78 187 1.0 9.0 0.00 0.00 0.00 17 1027.4
20260904021803 78 191 1.0 7.0 0.00 0.00 0.00 17 1027.4
20260904020903 79 180 2.0 7.0 0.00 0.00 0.00 17 1027.4
20260904020003 79 176 2.0 6.0 0.00 0.00 0.00 16 1027.4
20260904015403 79 171 1.0 4.0 0.00 0.00 0.00 17 1027.4
20260904014503 80 181 2.0 7.0 0.00 0.00 0.00 17 1027.4
20260904013603 80 184 2.0 6.0 0.00 0.00 0.00 16 1027.4
20260904012703 81 188 2.0 9.0 0.00 0.00 0.00 16 1027.4
20260904011803 81 191 2.0 13.0 0.00 0.00 0.00 16 1027.4
20260904010903 81 188 3.0 10.0 0.00 0.00 0.00 16 1027.4
20260904010003 81 183 3.0 10.0 0.00 0.00 0.00 16 1027.4
20260904005403 81 195 3.0 10.0 0.00 0.00 0.00 16 1027.4
20260904004524 80 200 2.0 10.0 0.00 0.00 0.00 17 1027.4
20260904003603 80 173 1.0 7.0 0.00 0.00 0.00 18 1027.4
20260904002724 80 162 2.0 10.0 0.00 0.00 0.00 17 1027.4